Voltar ao catálogo

STARLINK-11196

AtivoComunicaçõesVLEO
NORAD 60408·PAYLOAD·🇺🇸 United States

Lançado Aug 10, 2024 de Cape Canaveral Space Force Station

Loading…

Próximas Passagens (próximas 24 horas)

TLE

AtualizadoSource: CelesTrak SupGP

Época: Sep 14, 2026, 22:41 UTC

1 60408C 24141L   26257.94562500  .00055497  00000+0  45697-3 0  2573
2 60408  53.1575 233.3634 0001044  92.8377  18.6913 15.69691299    11

Acompanhe STARLINK-11196 em tempo real com AllMySat

Download on the App Store